Погода в Ахангаме

Шри-Ланка     6°00′08″N   80°22′10″E
темп.,
°C
ветер,
м/с
пор.,
м/с
влажн.,
%
обл.,
%
осадки,
мм/ч
давл.,
гПа
погр.,
м
5 декабря, вс
вс523:30+27сз3481100 1.1 1012509
02:30+26с2387100 2.1 1010185
05:30+25с238792 2.5 1011163
08:30+27с22800 0.4 1013250
11:30+29з337013 0.4 1011707
14:30+28з337512 1.3 1009613
17:30+28зсз23789 2.3 1009387
20:30+27сз2381100 2.6 1012234
6 декабря, пн
пн623:30+25св238750 6.5 1012169
02:30+25всв238726 1.0 1010135
05:30+25всв228755 1.1 1010136
08:30+26в238158 0.0 1012272
11:30+28юв227599 0.9 1011506
14:30+28ю117615 1.5 1008467
17:30+27ююз118018 4.2 1009133
20:30+26вюв128189 0.8 1012259
7 декабря, вт
вт723:30+25всв228574 2.4 1011133
02:30+25св228897 0.1 1009117
05:30+25св128685 0.2 1010115
08:30+26всв1180100 0.0 1013220
11:30+28ю117129 0.0 1011579
14:30+27ююз217544 1.1 1009539
17:30+27юз11788 1.6 1010305
20:30+26ююв017916 0.1 1012359
8 декабря, ср
ср823:30+26всв1183100 0.2 1012150
02:30+25всв118695 0.1 1009142
05:30+25в118771 0.1 1010145
08:30+26в2282100 0.0 1012271
11:30+29ююв1268100 0.0 1011739
14:30+29ююз3466100 0.1 1008991
17:30+27юз237991 1.0 1009324
20:30+26ююв128497 3.6 1012191
9 декабря, чт
чт923:30+25всв028497 5.6 1012181
02:30+25всв118496 0.1 1010206
05:30+24всв3389100 0.1 1010187
08:30+26всв348499 0.0 1013286
11:30+30в236395 0.0 1011876
14:30+30ю3363100 0.3 1008776
17:30+28юв347475 1.0 1010469
20:30+26ссв127980 0.9 1012106